COSMOS 374 DEB

Satellite information

Favourite Embed

Satellite Type and Status

DEBRISIN ORBIT

Key statistics

Satellite COSMOS 374 DEB at a glance.

Uptime

20085

Days in orbit

Revolutions

≈ 14.4

Per day

Orbit

LEO

Low Earth Orbit

Inclination

62.9

Latest

Satellite identification and parameters

Extended collection of information and parameters for COSMOS 374 DEB.

Object identification

Identified? True

Debris? True

Object name: COSMOS 374 DEB

International designator: 1970-089D

Object number (NORAD): 4617

Object ID (CCSDS): 4617

Country: COMMONWEALTH OF INDEPENDENT STATES (CIS)

Current information (Y/N): Y

RCS size: MEDIUM

Orbital parameters

Period: 100.071 minutes

Inclination: 62.9442 deg

SMA: 7139.99 km

Apoapsis: 982.579 km

Periapsis: 541.13 km

RAAN: 32.0762 deg

Eccentricy: 0.0309138

Argument of periapsis: 302.5848 deg

Mean anomaly: 54.5715 deg

Mean motion: 14.38985417 rev/day

Mean motion (dot): 0.00006067 rev/day2

B* drag term: 0.0011450168 1/REarth

Two-line elements (TLE)

Creation date: Oct. 18, 2025, 2:17 a.m.

Reference frame: TEME

Reference center: EARTH

Epoch: Oct. 17, 2025, 10:50 a.m. UTC

TLE line 0: 0 COSMOS 374 DEB

TLE line 1: 1 04617U 70089D 25290.45166774 .00006067 00000-0 11450-2 0 9992

TLE line 2: 2 04617 62.9442 32.0762 0309138 302.5848 54.5715 14.38985417733001

Live tracking on map

Real-time ground track for satellite COSMOS 374 DEB.

In-orbit conjunctions

A list of the most updated potential collisions computed for object COSMOS 374 DEB.

Target Orbit TCA Probability of collision Miss distance Type
FENGYUN 1C DEB SSO 2024-11-09 15:33:51 0.0007446192 283.0 (m) DEBRIS
OBJECT C SSO 2024-08-05 16:42:20 0.001347572 304.0 (m) UNKNOWN
CZ-6A DEB SSO 2024-07-02 05:10:43 0.0001041633 425.0 (m) DEBRIS

Associated space launch

The I2P satellites were the first soviet coorbital ASAT system.

COSMOS 374 DEB was lifted into orbit during the mission ‘Tsiklon-2 | I2P 4’, on board a Tsiklon-2 space rocket.

The launch took place on Oct. 23, 1970, 4:42 a.m. from 90/20.

For more information about the launch, click the button.

Launch to space Tsiklon-2 | I2P 4
Tsiklon-2 | I2P 4

Agency: N/A

Status: Launch Successful

Launch date: Oct. 23, 1970, 4:42 a.m. UTC

Rocket: Tsiklon-2

Launch pad: 90/20

Location: Baikonur Cosmodrome, Republic of Kazakhstan

...

Latest news about this satellite

There are no fresh news available about this satellite. Check back as we update our databases every day.


Newsletter sign-up

Weekly statistics, charts and insights to help you stay on top of the space industry.